This is the latest recevied weather packets stored in our database for station/object DH1NAI-6. If no packets are shown the sender has not sent any weather packets the latest 10 day(s).
| Time | Temp. | Humidity | Pressure | Rain* | Wind** | Luminosity | Snow |
|---|---|---|---|---|---|---|---|
| 1778144256 | 9.44° C | 99% | 1008.6 hPa | 1.02 mm | - | 40 W/m² | - |
| 1778143649 | 9.44° C | 99% | 1008.6 hPa | 1.02 mm | - | 54 W/m² | - |
| 1778143040 | 8.89° C | 99% | 1008.6 hPa | 1.02 mm | - | 35 W/m² | - |
| 1778142416 | 8.89° C | 99% | 1008.4 hPa | 1.02 mm | - | 47 W/m² | - |
| 1778141793 | 8.33° C | 99% | 1008.1 hPa | 1.02 mm | - | 20 W/m² | - |
| 1778141189 | 8.89° C | 99% | 1008.2 hPa | 1.02 mm | - | 17 W/m² | - |
| 1778140577 | 8.33° C | 99% | 1008.2 hPa | 1.02 mm | - | 14 W/m² | - |
| 1778139968 | 8.89° C | 99% | 1007.9 hPa | 0 mm | - | 27 W/m² | - |
| 1778139361 | 9.44° C | 99% | 1007.9 hPa | 0 mm | - | 40 W/m² | - |
| 1778138752 | 9.44° C | 99% | 1007.7 hPa | 0 mm | - | 48 W/m² | - |
| 1778138145 | 9.44° C | 99% | 1007.8 hPa | 0 mm | - | 39 W/m² | - |
| 1778137532 | 9.44° C | 99% | 1007.6 hPa | 0 mm | - | 32 W/m² | - |
| 1778136929 | 8.89° C | 99% | 1007.6 hPa | 1.02 mm | - | 40 W/m² | - |
| 1778136320 | 8.89° C | 99% | 1007.7 hPa | 1.02 mm | - | 28 W/m² | - |
| 1778135696 | 8.89° C | 99% | 1007.3 hPa | 1.02 mm | - | 27 W/m² | - |
| 1778135073 | 8.89° C | 99% | 1007.3 hPa | 1.02 mm | - | 26 W/m² | - |
| 1778134464 | 8.89° C | 99% | 1007.2 hPa | 0 mm | - | 18 W/m² | - |
| 1778133857 | 8.89° C | 99% | 1007.1 hPa | 0 mm | - | 17 W/m² | - |
| 1778132641 | 8.33° C | 99% | 1006.9 hPa | 1.02 mm | - | 10 W/m² | - |
| 1778132032 | 8.89° C | 99% | 1006.8 hPa | 1.02 mm | - | 10 W/m² | - |
| 1778131425 | 8.33° C | 99% | 1006.6 hPa | 1.02 mm | - | 10 W/m² | - |
| 1778130812 | 8.89° C | 99% | 1006.5 hPa | 1.02 mm | - | 6 W/m² | - |
| 1778130209 | 8.89° C | 99% | 1006.4 hPa | 0 mm | - | 4 W/m² | - |
| 1778129600 | 8.89° C | 99% | 1006.4 hPa | 1.02 mm | - | 1 W/m² | - |
| 1778128976 | 8.89° C | 99% | 1006.1 hPa | 1.02 mm | - | 2 W/m² | - |
* Rain latest hour (hover to see other rain measurements)
** Current wind speed in m/s (hover to see current wind gust speed)